WetterOnline ( https://www.wetteronline.de )

Wetter aktuell Bonn

Aktuelles Wetter: Königswinter-Heiderhof (147m)

6-stündlich | Neueste Meldungen
Ortszeit Temperatur Wetter
Di, 28.06. 20:00 23.7° C wolkig
Di, 28.06. 14:00 22.1° C leicht bewölkt
Di, 28.06. 8:00 14.1° C wolkenlos
Di, 28.06. 2:00 12.9° C wolkenlos
Mo, 27.06. 20:00 16.0° C bewölkt
Mo, 27.06. 14:00 19.4° C wolkig
Mo, 27.06. 8:00 16.1° C bedeckt
Mo, 27.06. 2:00 15.4° C leichter Regen
Ortszeit Temperatur Wetter
Mi, 29.06. 0:00 19.0° C wolkig
Di, 28.06. 23:50 19.0° C wolkig
Di, 28.06. 23:40 18.8° C bedeckt
Di, 28.06. 23:30 19.6° C wolkig
Di, 28.06. 23:20 19.6° C wolkig
Di, 28.06. 23:10 19.3° C bedeckt
Di, 28.06. 23:00 19.0° C wolkig
Di, 28.06. 22:30 19.8° C wolkig
Di, 28.06. 22:00 20.8° C wolkig
Di, 28.06. 21:30 21.4° C wolkig
Di, 28.06. 21:00 22.3° C wolkig
Ortszeit Relative Feuchte Sichtweite
Di, 28.06. 20:00 44% >70 km
Di, 28.06. 14:00 46% 10 km
Di, 28.06. 8:00 88% 26 km
Di, 28.06. 2:00 99% 7 km
Mo, 27.06. 20:00 87% 65 km
Mo, 27.06. 14:00 71% 35 km
Mo, 27.06. 8:00 95% 12 km
Mo, 27.06. 2:00 94% 28 km
Ortszeit Relative Feuchte Sichtweite
Mi, 29.06. 0:00 57% >70 km
Di, 28.06. 23:50 57% -
Di, 28.06. 23:40 58% -
Di, 28.06. 23:30 55% >70 km
Di, 28.06. 23:20 55% -
Di, 28.06. 23:10 57% -
Di, 28.06. 23:00 59% >70 km
Di, 28.06. 22:30 56% >70 km
Di, 28.06. 22:00 54% >70 km
Di, 28.06. 21:30 52% 60 km
Di, 28.06. 21:00 49% >70 km
Ortszeit Niederschlagsmenge Niederschlagsart
Di, 28.06. 20:00 0.1 l/m2 in 12 Std. Niederschlag
Di, 28.06. 14:00 0.0 l/m2 in 6 Std. -
Di, 28.06. 8:00 0.0 l/m2 in 12 Std. -
Di, 28.06. 2:00 0.0 l/m2 in 6 Std. -
Mo, 27.06. 20:00 3 l/m2 in 12 Std. Regen
Mo, 27.06. 14:00 0.1 l/m2 in 6 Std. Regen
Mo, 27.06. 8:00 0.6 l/m2 in 12 Std. Regen
Mo, 27.06. 2:00 0.1 l/m2 in 6 Std. Regen
Ortszeit Niederschlagsmenge Niederschlagsart
Mi, 29.06. 0:00 0.0 l/m2 in 1 Std. -
Di, 28.06. 23:50 keine Meldung -
Di, 28.06. 23:40 keine Meldung -
Di, 28.06. 23:30 0.0 l/m2 in 1 Std. -
Di, 28.06. 23:20 keine Meldung -
Di, 28.06. 23:10 keine Meldung -
Di, 28.06. 23:00 0.0 l/m2 in 1 Std. -
Di, 28.06. 22:30 0.0 l/m2 in 1 Std. -
Di, 28.06. 22:00 0.0 l/m2 in 1 Std. -
Di, 28.06. 21:30 0.0 l/m2 in 1 Std. -
Di, 28.06. 21:00 0.0 l/m2 in 1 Std. -
Ortszeit Stärke Spitze Richtung
km/h Bft. km/h Grad Sektor
Di, 28.06. 20:00 9 2 22 70° O
Di, 28.06. 14:00 9 2 20 150° SO
Di, 28.06. 8:00 4 1 7 40° NO
Di, 28.06. 2:00 0 0 11 - -
Mo, 27.06. 20:00 7 2 47 300° NW
Mo, 27.06. 14:00 4 1 18 230° SW
Mo, 27.06. 8:00 6 1 13 190° S
Mo, 27.06. 2:00 9 2 11 250° W
Ortszeit Stärke Spitze Richtung
km/h Bft. km/h Grad Sektor
Mi, 29.06. 0:00 4 1 7 140° SO
Di, 28.06. 23:50 4 1 - 140° SO
Di, 28.06. 23:40 4 1 - 110° O
Di, 28.06. 23:30 2 1 7 120° SO
Di, 28.06. 23:20 2 1 - 120° SO
Di, 28.06. 23:10 2 1 - 110° O
Di, 28.06. 23:00 7 2 11 140° SO
Di, 28.06. 22:30 7 2 7 140° SO
Di, 28.06. 22:00 4 1 11 120° SO
Di, 28.06. 21:30 6 1 9 100° O
Di, 28.06. 21:00 7 2 17 90° O
Ortszeit Untergrenze Bedeckung Gattung
total tief tief mittel hoch
Di, 28.06. 20:00 9000 m 8/8 0/8 - - -
Di, 28.06. 14:00 1800 m 3/8 3/8 - - -
Di, 28.06. 8:00 - 0/8 0/8 - - -
Di, 28.06. 2:00 - 0/8 0/8 - - -
Mo, 27.06. 20:00 2100 m 7/8 7/8 - - -
Mo, 27.06. 14:00 630 m 8/8 1/8 - - -
Mo, 27.06. 8:00 1800 m 8/8 8/8 - - -
Mo, 27.06. 2:00 2400 m 8/8 7/8 - - -
Ortszeit Bedeckungsgrad in Achtel und Wolkenuntergrenze
Mi, 29.06. 0:00 8(7200m) 8(9000m)
Di, 28.06. 23:50 8(7200m) 8(9000m)
Di, 28.06. 23:40 8
Di, 28.06. 23:30 8(7200m) 8(9000m)
Di, 28.06. 23:20 8(7200m) 8(9000m)
Di, 28.06. 23:10 8
Di, 28.06. 23:00 8(7500m)
Di, 28.06. 22:30 8(8100m)
Di, 28.06. 22:00 8(8700m)
Di, 28.06. 21:30 8(9000m)
Di, 28.06. 21:00 8(9000m)
Ortszeit Luftdruck NN (hPa) Tendenz (hPa in 3 Std.)
Di, 28.06. 20:00 1017 - 1,3
Di, 28.06. 14:00 1021 - 1,6
Di, 28.06. 8:00 1023 + 0,7
Di, 28.06. 2:00 1022 + 0,6
Mo, 27.06. 20:00 1020 + 2,4
Mo, 27.06. 14:00 1017 + 0,3
Mo, 27.06. 8:00 1014 - 0,1
Mo, 27.06. 2:00 1015 - 0,4
Ortszeit Luftdruck NN (hPa) Tendenz (hPa in 3 Std.)
Mi, 29.06. 0:00 1017 - 0,5
Di, 28.06. 23:50 1017 keine Meldung
Di, 28.06. 23:40 1017 keine Meldung
Di, 28.06. 23:30 1017 - 0,3
Di, 28.06. 23:20 1017 keine Meldung
Di, 28.06. 23:10 1017 keine Meldung
Di, 28.06. 23:00 1018 - 0,1
Di, 28.06. 22:30 1018 - 0,2
Di, 28.06. 22:00 1017 - 0,5
Di, 28.06. 21:30 1017 - 0,8
Di, 28.06. 21:00 1017 - 1,0
Ortszeit Schneehöhe (cm)
Di, 28.06. 20:00 0
Di, 28.06. 14:00 0
Di, 28.06. 8:00 0
Di, 28.06. 2:00 0
Mo, 27.06. 20:00 0
Mo, 27.06. 14:00 0
Mo, 27.06. 8:00 0
Mo, 27.06. 2:00 0
Ortszeit Schneehöhe (cm)
Mi, 29.06. 0:00 0
Di, 28.06. 23:50 0
Di, 28.06. 23:40 0
Di, 28.06. 23:30 0
Di, 28.06. 23:20 0
Di, 28.06. 23:10 0
Di, 28.06. 23:00 0
Di, 28.06. 22:30 0
Di, 28.06. 22:00 0
Di, 28.06. 21:30 0
Di, 28.06. 21:00 0
Link zu dieser Seite / Seite empfehlen

Das Wetter in ...